DW8234 Weather Reports


Display with metric or nautical units.
time (UTC)temp
F
wind
direction
speed
MPH
gust
MPH
rain 1hr
in
rain 24hr
in
rain mn
in
humidity
%
barometer
mb
20190123154901 71 29 3.0 7.0 0.00 0.00 0.00 72 1024.1
20190123154300 70 108 2.0 7.0 0.00 0.00 0.00 73 1024.0
20190123152500 70 96 3.0 6.0 0.00 0.00 0.00 78 1024.3
20190123151902 69 97 1.0 6.0 0.00 0.00 0.00 78 1024.4
20190123151300 68 122 0.0 5.0 0.00 0.00 0.00 81 1024.4
20190123150702 68 102 0.0 3.0 0.00 0.00 0.00 82 1024.4
20190123150100 67 111 1.0 1.0 0.00 0.00 0.00 84 1024.3
20190123145459 66 93 3.0 6.0 0.00 0.00 0.00 84 1024.5
20190123144900 66 87 2.0 5.0 0.00 0.00 0.00 85 1024.4
20190123143701 63 108 2.0 4.0 0.00 0.00 0.00 92 1024.3
20190123140659 60 31 0.0 3.0 0.00 0.00 0.00 95 1024.8
20190123135459 60 93 0.0 2.0 0.00 0.00 0.00 95 1025.0
20190123134859 59 79 2.0 2.0 0.00 0.00 0.00 95 1025.0
20190123133659 59 79 0.0 2.0 0.00 0.00 0.00 96 1024.8
20190123131859 58 79 0.0 2.0 0.00 0.00 0.00 96 1024.8
20190123131259 58 79 0.0 2.0 0.00 0.00 0.00 96 1024.7
20190123130659 58 79 0.0 2.0 0.00 0.00 0.00 96 1024.8
20190123130058 57 79 1.0 2.0 0.00 0.00 0.00 96 1024.8
20190123125458 57 79 0.0 2.0 0.00 0.00 0.00 96 1024.9
20190123124258 57 79 0.0 2.0 0.00 0.00 0.00 96 1024.8
20190123122458 57 78 0.0 1.0 0.00 0.00 0.00 96 1025.0
20190123121858 57 78 0.0 1.0 0.00 0.00 0.00 96 1025.3
20190123120058 57 78 0.0 0.0 0.00 0.00 0.00 96 1025.2
20190123114858 57 78 0.0 2.0 0.00 0.00 0.00 96 1025.1
20190123113658 57 78 0.0 2.0 0.00 0.00 0.00 96 1025.1
20190123113057 57 78 1.0 1.0 0.00 0.00 0.00 96 1025.2
20190123111857 57 78 0.0 0.0 0.00 0.00 0.00 96 1025.2
20190123111258 57 78 0.0 0.0 0.00 0.00 0.00 96 1025.3
20190123103657 57 78 0.0 2.0 0.00 0.00 0.00 96 1025.3
20190123103057 57 78 0.0 1.0 0.00 0.00 0.00 96 1025.3
20190123101256 57 78 0.0 0.0 0.00 0.00 0.00 96 1025.4
20190123100656 57 78 0.0 0.0 0.00 0.00 0.00 96 1025.5
20190123095456 57 78 0.0 1.0 0.00 0.00 0.00 95 1025.6
20190123094856 57 78 0.0 1.0 0.00 0.00 0.00 95 1025.6
20190123094257 57 78 0.0 1.0 0.00 0.00 0.00 95 1025.6
20190123093656 57 78 0.0 1.0 0.00 0.00 0.00 96 1025.6
20190123091856 57 78 0.0 0.0 0.00 0.00 0.00 95 1025.7
20190123084255 57 78 0.0 0.0 0.00 0.00 0.00 96 1026.1
20190123082455 57 78 0.0 0.0 0.00 0.00 0.00 96 1026.4
20190123081855 57 78 0.0 0.0 0.00 0.00 0.00 95 1026.4
20190123081255 57 78 0.0 0.0 0.00 0.00 0.00 95 1026.5
20190123080655 57 78 0.0 0.0 0.00 0.00 0.00 95 1026.7
20190123080055 57 78 0.0 0.0 0.00 0.00 0.00 95 1026.5
20190123075456 56 78 0.0 1.0 0.00 0.00 0.00 95 1026.4
20190123073655 56 78 0.0 1.0 0.00 0.00 0.00 94 1026.6
20190123071854 57 78 0.0 1.0 0.00 0.00 0.00 94 1026.6
20190123071254 57 78 0.0 1.0 0.00 0.00 0.00 93 1026.6
20190123070654 57 78 0.0 1.0 0.00 0.00 0.00 93 1026.6
20190123070054 57 78 0.0 0.0 0.00 0.00 0.00 93 1026.6
20190123064855 57 78 0.0 1.0 0.00 0.00 0.00 93 1026.5
20190123063654 58 78 0.0 1.0 0.00 0.00 0.00 93 1026.6
20190123063055 58 78 0.0 0.0 0.00 0.00 0.00 92 1026.7
20190123062454 58 78 0.0 0.0 0.00 0.00 0.00 92 1026.9
20190123061854 58 78 0.0 0.0 0.00 0.00 0.00 92 1026.7
20190123060054 58 78 0.0 0.0 0.00 0.00 0.00 91 1026.8
20190123055454 58 78 0.0 3.0 0.00 0.00 0.00 91 1026.8
20190123054855 58 78 0.0 3.0 0.00 0.00 0.00 91 1026.9
20190123054254 58 78 0.0 3.0 0.00 0.00 0.00 91 1026.9
20190123052453 58 78 0.0 3.0 0.00 0.00 0.00 90 1027.3
20190123050053 58 78 2.0 3.0 0.00 0.00 0.00 88 1027.6
20190123045453 58 71 0.0 4.0 0.00 0.00 0.00 87 1027.5
20190123044853 59 99 0.0 4.0 0.00 0.00 0.00 86 1027.5
20190123044254 60 98 0.0 4.0 0.00 0.00 0.00 84 1027.6
20190123043653 60 98 0.0 4.0 0.00 0.00 0.00 83 1027.7
20190123040053 62 108 1.0 5.0 0.00 0.00 0.00 80 1027.8
20190123033052 62 129 3.0 5.0 0.00 0.00 0.00 81 1028.0
20190123032452 61 73 3.0 5.0 0.00 0.00 0.00 82 1028.0
20190123030653 61 100 0.0 3.0 0.00 0.00 0.00 83 1028.1
20190123024852 60 89 2.0 4.0 0.00 0.00 0.00 83 1028.0
20190123024252 60 111 0.0 4.0 0.00 0.00 0.00 83 1028.1
20190123023652 60 97 1.0 3.0 0.00 0.00 0.00 83 1028.4
20190123023053 60 97 0.0 3.0 0.00 0.00 0.00 83 1028.3
20190123022452 60 55 2.0 3.0 0.00 0.00 0.00 83 1028.3
20190123021851 60 4 0.0 3.0 0.00 0.00 0.00 82 1028.3
20190123020652 60 109 1.0 2.0 0.00 0.00 0.00 82 1028.3
20190123020051 60 84 1.0 5.0 0.00 0.00 0.00 82 1028.3
20190123015451 60 111 1.0 5.0 0.00 0.00 0.00 82 1028.3
20190123014251 59 91 1.0 5.0 0.00 0.00 0.00 83 1028.2
20190123013051 59 74 2.0 4.0 0.00 0.00 0.00 84 1028.4
20190123011251 58 111 1.0 3.0 0.00 0.00 0.00 85 1028.6
20190123005450 57 100 0.0 3.0 0.00 0.00 0.00 84 1028.4
20190123004852 57 56 1.0 2.0 0.00 0.00 0.00 84 1028.4
20190123003051 58 96 0.0 1.0 0.00 0.00 0.00 83 1028.6
20190123002450 58 102 0.0 1.0 0.00 0.00 0.00 82 1028.7
20190123001850 58 102 0.0 0.0 0.00 0.00 0.00 82 1028.8
20190123000651 58 102 0.0 0.0 0.00 0.00 0.00 81 1028.7
20190123000050 58 102 0.0 2.0 0.00 0.00 0.00 81 1028.7
20190122233649 60 23 0.0 2.0 0.00 0.00 0.00 77 1028.8
20190122232449 61 23 0.0 2.0 0.00 0.00 0.00 75 1028.8
20190122231849 61 23 0.0 2.0 0.00 0.00 0.00 74 1028.8
20190122230649 62 92 0.0 2.0 0.00 0.00 0.00 72 1028.9
20190122230050 62 94 1.0 5.0 0.00 0.00 0.00 71 1028.9
20190122225450 63 125 0.0 5.0 0.00 0.00 0.00 71 1028.9
20190122224849 63 81 0.0 5.0 0.00 0.00 0.00 70 1028.9
20190122223650 64 105 0.0 5.0 0.00 0.00 0.00 69 1028.9
20190122221849 64 54 0.0 5.0 0.00 0.00 0.00 67 1028.9
20190122221249 65 99 0.0 5.0 0.00 0.00 0.00 66 1028.9
20190122220648 65 132 0.0 5.0 0.00 0.00 0.00 65 1029.0
20190122220049 65 75 0.0 10.0 0.00 0.00 0.00 64 1029.0
20190122215448 66 71 0.0 10.0 0.00 0.00 0.00 64 1029.0
20190122214848 66 115 0.0 10.0 0.00 0.00 0.00 63 1029.0
20190122213048 67 100 2.0 10.0 0.00 0.00 0.00 60 1029.0
20190122212449 68 62 2.0 10.0 0.00 0.00 0.00 59 1028.8
20190122211848 69 103 0.0 10.0 0.00 0.00 0.00 57 1028.9
20190122211249 69 89 1.0 10.0 0.00 0.00 0.00 56 1028.9
20190122204848 68 78 5.0 13.0 0.00 0.00 0.00 57 1028.9
20190122204248 68 80 2.0 13.0 0.00 0.00 0.00 55 1028.9
20190122203047 69 74 0.0 13.0 0.00 0.00 0.00 54 1029.0
20190122201847 69 86 1.0 9.0 0.00 0.00 0.00 55 1029.0
20190122201247 69 41 4.0 9.0 0.00 0.00 0.00 54 1029.1
20190122200647 69 145 4.0 9.0 0.00 0.00 0.00 53 1029.0
20190122200048 68 111 3.0 10.0 0.00 0.00 0.00 55 1029.2
20190122195447 68 118 3.0 10.0 0.00 0.00 0.00 55 1029.3
20190122194848 67 127 1.0 10.0 0.00 0.00 0.00 56 1029.4
20190122194247 66 152 1.0 9.0 0.00 0.00 0.00 62 1029.3
20190122193647 66 75 2.0 9.0 0.00 0.00 0.00 63 1029.4
20190122193047 66 92 3.0 9.0 0.00 0.00 0.00 63 1029.5
20190122192448 66 74 5.0 9.0 0.00 0.00 0.00 64 1029.7
20190122191847 66 71 0.0 9.0 0.00 0.00 0.00 62 1029.8
20190122191247 66 148 0.0 9.0 0.00 0.00 0.00 61 1029.8
20190122190646 66 93 1.0 7.0 0.00 0.00 0.00 61 1029.9
20190122184847 67 91 4.0 10.0 0.00 0.00 0.00 60 1030.2
20190122183046 68 24 0.0 10.0 0.00 0.00 0.00 57 1030.4
20190122181247 67 55 2.0 9.0 0.00 0.00 0.00 61 1030.8
20190122180646 67 81 1.0 7.0 0.00 0.00 0.00 60 1031.1
20190122180046 67 49 0.0 14.0 0.00 0.00 0.00 58 1031.2
20190122173646 67 104 0.0 5.0 0.00 0.00 0.00 57 1031.5
20190122173045 68 104 0.0 5.0 0.00 0.00 0.00 54 1031.6
20190122172446 68 40 0.0 5.0 0.00 0.00 0.00 54 1031.6
20190122171846 67 89 1.0 5.0 0.00 0.00 0.00 54 1031.7
20190122171245 67 88 0.0 5.0 0.00 0.00 0.00 55 1031.8
20190122170045 67 90 0.0 5.0 0.00 0.00 0.00 55 1031.8
20190122165445 67 57 0.0 5.0 0.00 0.00 0.00 55 1032.0
20190122164245 67 127 0.0 5.0 0.00 0.00 0.00 58 1031.9
20190122163645 66 88 0.0 5.0 0.00 0.00 0.00 56 1032.1
20190122163045 66 91 3.0 5.0 0.00 0.00 0.00 56 1032.1
20190122161846 67 40 0.0 4.0 0.00 0.00 0.00 56 1032.2
20190122161246 67 16 0.0 3.0 0.00 0.00 0.00 55 1032.2
20190122160045 67 77 8.0 8.0 0.00 0.00 0.00 54 1032.1
20190122155444 67 68 0.0 6.0 0.00 0.00 0.00 56 1032.1